When you browse on this site, cookies collect data to enhance your experience and personalize the content and advertising you see.
Visit our Privacy Policy to learn more. By continuing to use the site, you agree to this use of cookies and data.
  • în România
  • Lista ţărilor
  • Pe 7 zile
  • Temperatura apei
  • Meteo pe hartă
  • Widget-uri
  • user-avatar
    Intrare

    Meteo pe oră la Georgetown

    Astăzi, 6 Decembrie, Vineri

    Timp Temperatura Precipitaţii Vânt Presiune Umiditate
    00:00 +26°C° 0.3 mm 3 m/s 759 mmHg 93%
    01:00 +26°C° 0.3 mm 3 m/s 758 mmHg 93%
    02:00 +26°C° 0 mm 3 m/s 758 mmHg 92%
    03:00 +26°C° 0.7 mm 3 m/s 758 mmHg 93%
    04:00 +26°C° 0.7 mm 3 m/s 758 mmHg 93%
    05:00 +26°C° 0.7 mm 3 m/s 758 mmHg 93%
    06:00 +27°C° 1.4 mm 3 m/s 759 mmHg 92%
    07:00 +27°C° 1.4 mm 3 m/s 759 mmHg 91%
    08:00 +28°C° 1.4 mm 3 m/s 759 mmHg 89%
    09:00 +29°C° 1.5 mm 3 m/s 760 mmHg 89%
    10:00 +29°C° 1.5 mm 4 m/s 760 mmHg 88%
    11:00 +29°C° 1.5 mm 4 m/s 760 mmHg 87%
    12:00 +29°C° 1.5 mm 4 m/s 759 mmHg 87%
    13:00 +29°C° 1.5 mm 4 m/s 758 mmHg 88%
    14:00 +29°C° 1.5 mm 4 m/s 757 mmHg 89%
    15:00 +29°C° 0.8 mm 4 m/s 757 mmHg 90%
    16:00 +28°C° 0.8 mm 4 m/s 757 mmHg 91%
    17:00 +28°C° 0.8 mm 4 m/s 757 mmHg 92%
    18:00 +27°C° 0.4 mm 4 m/s 757 mmHg 93%
    19:00 +27°C° 0.4 mm 3 m/s 758 mmHg 94%
    20:00 +26°C° 0.4 mm 3 m/s 758 mmHg 95%
    21:00 +26°C° 0.5 mm 3 m/s 759 mmHg 95%
    22:00 +26°C° 0.5 mm 3 m/s 759 mmHg 95%
    23:00 +26°C° 0.5 mm 3 m/s 759 mmHg 95%

    Mâine, 7 Decembrie, Sâmbătă

    Timp Temperatura Precipitaţii Vânt Presiune Umiditate
    00:00 +26°C° 0.5 mm 3 m/s 758 mmHg 95%
    01:00 +26°C° 0.5 mm 3 m/s 758 mmHg 95%
    02:00 +26°C° 0.5 mm 3 m/s 757 mmHg 95%
    03:00 +26°C° 0.4 mm 3 m/s 757 mmHg 95%
    04:00 +26°C° 0.4 mm 3 m/s 757 mmHg 95%
    05:00 +26°C° 0.4 mm 3 m/s 757 mmHg 95%
    06:00 +27°C° 0.7 mm 3 m/s 758 mmHg 93%
    07:00 +27°C° 0.7 mm 3 m/s 758 mmHg 91%
    08:00 +28°C° 0.7 mm 3 m/s 759 mmHg 90%
    09:00 +29°C° 1.1 mm 3 m/s 759 mmHg 89%
    10:00 +29°C° 1.1 mm 3 m/s 759 mmHg 89%
    11:00 +29°C° 1.1 mm 3 m/s 759 mmHg 88%
    12:00 +29°C° 1.2 mm 3 m/s 758 mmHg 89%
    13:00 +29°C° 1.2 mm 3 m/s 757 mmHg 89%
    14:00 +29°C° 1.2 mm 4 m/s 756 mmHg 89%
    15:00 +28°C° 0.7 mm 4 m/s 756 mmHg 91%
    16:00 +28°C° 0.7 mm 4 m/s 756 mmHg 92%
    17:00 +27°C° 0.7 mm 4 m/s 756 mmHg 93%
    18:00 +27°C° 0.6 mm 3 m/s 756 mmHg 93%
    19:00 +26°C° 0.6 mm 3 m/s 757 mmHg 94%
    20:00 +26°C° 0.6 mm 3 m/s 757 mmHg 95%
    21:00 +26°C° 0.6 mm 3 m/s 757 mmHg 95%
    22:00 +26°C° 0.6 mm 3 m/s 757 mmHg 95%
    23:00 +26°C° 0.6 mm 3 m/s 757 mmHg 95%

    Poimâine, 8 Decembrie, Duminică

    Timp Temperatura Precipitaţii Vânt Presiune Umiditate
    00:00 +26°C° 0.3 mm 3 m/s 757 mmHg 94%
    01:00 +26°C° 0.3 mm 2 m/s 757 mmHg 94%
    02:00 +26°C° 0.3 mm 2 m/s 756 mmHg 94%
    03:00 +26°C° 0.5 mm 2 m/s 756 mmHg 94%
    04:00 +26°C° 0.5 mm 2 m/s 756 mmHg 94%
    05:00 +26°C° 0.5 mm 2 m/s 756 mmHg 94%
    06:00 +27°C° 1 mm 2 m/s 757 mmHg 93%
    07:00 +27°C° 1 mm 2 m/s 757 mmHg 91%
    08:00 +28°C° 1 mm 2 m/s 758 mmHg 90%
    09:00 +29°C° 1 mm 2 m/s 758 mmHg 87%
    10:00 +29°C° 1 mm 3 m/s 758 mmHg 84%
    11:00 +30°C° 1 mm 3 m/s 758 mmHg 80%
    12:00 +30°C° 0.5 mm 3 m/s 757 mmHg 77%
    13:00 +31°C° 0.5 mm 3 m/s 757 mmHg 73%
    14:00 +31°C° 0.5 mm 3 m/s 756 mmHg 70%
    15:00 +30°C° 0 mm 3 m/s 756 mmHg 72%
    16:00 +30°C° 0 mm 3 m/s 756 mmHg 75%
    17:00 +29°C° 0 mm 3 m/s 756 mmHg 78%
    18:00 +28°C° 0 mm 3 m/s 756 mmHg 81%
    19:00 +27°C° 0 mm 3 m/s 756 mmHg 84%
    20:00 +27°C° 0 mm 3 m/s 757 mmHg 87%
    21:00 +27°C° 0 mm 3 m/s 757 mmHg 87%
    22:00 +27°C° 0 mm 3 m/s 757 mmHg 86%
    23:00 +27°C° 0 mm 3 m/s 757 mmHg 86%

    9 Decembrie, Luni

    Timp Temperatura Precipitaţii Vânt Presiune Umiditate
    00:00 +27°C° 0.2 mm 3 m/s 757 mmHg 86%
    01:00 +27°C° 0.2 mm 3 m/s 756 mmHg 87%
    02:00 +27°C° 0.2 mm 3 m/s 756 mmHg 87%
    03:00 +26°C° 0.8 mm 3 m/s 756 mmHg 88%
    04:00 +26°C° 0.8 mm 3 m/s 756 mmHg 90%
    05:00 +26°C° 0.8 mm 3 m/s 757 mmHg 92%
    06:00 +27°C° 0.7 mm 3 m/s 757 mmHg 90%
    07:00 +27°C° 0.7 mm 3 m/s 758 mmHg 89%
    08:00 +28°C° 0.7 mm 3 m/s 758 mmHg 88%
    09:00 +28°C° 1 mm 3 m/s 758 mmHg 87%
    10:00 +29°C° 1 mm 4 m/s 758 mmHg 86%
    11:00 +29°C° 1 mm 4 m/s 758 mmHg 85%
    12:00 +29°C° 0.7 mm 4 m/s 758 mmHg 81%
    13:00 +30°C° 0.7 mm 4 m/s 757 mmHg 78%
    14:00 +30°C° 0.7 mm 4 m/s 756 mmHg 75%
    15:00 +30°C° 0.2 mm 4 m/s 756 mmHg 76%
    16:00 +29°C° 0.2 mm 4 m/s 756 mmHg 78%
    17:00 +28°C° 0.2 mm 4 m/s 756 mmHg 80%
    18:00 +28°C° 0.1 mm 4 m/s 757 mmHg 83%
    19:00 +27°C° 0.1 mm 4 m/s 757 mmHg 85%
    20:00 +27°C° 0.1 mm 4 m/s 758 mmHg 87%
    21:00 +27°C° 0.3 mm 4 m/s 758 mmHg 87%
    22:00 +27°C° 0.3 mm 4 m/s 758 mmHg 87%
    23:00 +27°C° 0.3 mm 4 m/s 758 mmHg 87%

    10 Decembrie, Marţi

    Timp Temperatura Precipitaţii Vânt Presiune Umiditate
    00:00 +27°C° 0.1 mm 4 m/s 757 mmHg 87%
    01:00 +27°C° 0.1 mm 4 m/s 757 mmHg 88%
    02:00 +27°C° 0.1 mm 4 m/s 756 mmHg 89%
    03:00 +27°C° 0.3 mm 4 m/s 756 mmHg 90%
    04:00 +26°C° 0.3 mm 4 m/s 757 mmHg 91%
    05:00 +26°C° 0.3 mm 4 m/s 757 mmHg 91%
    06:00 +27°C° 0.4 mm 4 m/s 757 mmHg 90%
    07:00 +28°C° 0.4 mm 4 m/s 758 mmHg 88%
    08:00 +28°C° 0.4 mm 4 m/s 759 mmHg 87%
    09:00 +29°C° 0.7 mm 4 m/s 759 mmHg 86%
    10:00 +29°C° 0.7 mm 4 m/s 759 mmHg 85%
    11:00 +30°C° 0.7 mm 4 m/s 759 mmHg 84%
    12:00 +29°C° 0.8 mm 4 m/s 758 mmHg 84%
    13:00 +29°C° 0.8 mm 4 m/s 757 mmHg 84%
    14:00 +29°C° 0.8 mm 4 m/s 757 mmHg 84%
    15:00 +29°C° 0.7 mm 4 m/s 756 mmHg 86%
    16:00 +28°C° 0.7 mm 4 m/s 756 mmHg 88%
    17:00 +27°C° 0.7 mm 4 m/s 756 mmHg 91%
    18:00 +27°C° 0.4 mm 4 m/s 757 mmHg 91%
    19:00 +27°C° 0.4 mm 4 m/s 757 mmHg 92%
    20:00 +26°C° 0.4 mm 4 m/s 758 mmHg 92%
    21:00 +26°C° 0 mm 4 m/s 758 mmHg 92%
    22:00 +26°C° 0 mm 4 m/s 758 mmHg 92%
    23:00 +26°C° 0 mm 4 m/s 758 mmHg 91%

    11 Decembrie, Miercuri

    Timp Temperatura Precipitaţii Vânt Presiune Umiditate
    00:00 +26°C° 0 mm 4 m/s 758 mmHg 91%
    01:00 +26°C° 0 mm 4 m/s 757 mmHg 91%
    02:00 +26°C° 0 mm 4 m/s 757 mmHg 91%
    03:00 +26°C° 0.2 mm 4 m/s 756 mmHg 91%
    04:00 +26°C° 0.2 mm 4 m/s 756 mmHg 91%
    05:00 +26°C° 0.2 mm 3 m/s 756 mmHg 92%
    06:00 +27°C° 0.8 mm 4 m/s 757 mmHg 91%
    07:00 +27°C° 0.8 mm 4 m/s 758 mmHg 90%
    08:00 +28°C° 0.8 mm 4 m/s 758 mmHg 89%
    09:00 +28°C° 1 mm 4 m/s 758 mmHg 89%
    10:00 +29°C° 1 mm 4 m/s 758 mmHg 88%
    11:00 +29°C° 1 mm 4 m/s 758 mmHg 88%
    12:00 +29°C° 1.1 mm 4 m/s 758 mmHg 88%
    13:00 +29°C° 1.1 mm 4 m/s 757 mmHg 88%
    14:00 +29°C° 1.1 mm 4 m/s 756 mmHg 88%
    15:00 +28°C° 0.8 mm 4 m/s 756 mmHg 89%
    16:00 +27°C° 0.8 mm 4 m/s 756 mmHg 91%
    17:00 +27°C° 0.8 mm 4 m/s 756 mmHg 92%
    18:00 +27°C° 0.2 mm 4 m/s 756 mmHg 92%
    19:00 +26°C° 0.2 mm 4 m/s 757 mmHg 93%
    20:00 +26°C° 0.2 mm 3 m/s 757 mmHg 93%
    21:00 +26°C° 0.1 mm 3 m/s 757 mmHg 93%
    22:00 +26°C° 0.1 mm 3 m/s 757 mmHg 93%
    23:00 +26°C° 0.1 mm 3 m/s 757 mmHg 93%
    Arată mai mult